,,Stat6,,Stat2,,Stat8,,Stat9,,Stat10,,Wind1,,Wind1,
time,status,PA1M_AVG,status,PR1M_SUM,status,RH1M_AVG,status,SR1M_AVG,status,TA1M_AVG,status,W1dAve1m,status,W1sAve1m,
2009-03-12, 00:00:00,VALID,918.961,VALID,0,VALID,99.999,VALID,-0.0509425,VALID,20.3793,VALID,32,VALID,0.137355,
2009-03-12, 00:01:00,VALID,918.958,VALID,0,VALID,100,VALID,-0.0849042,VALID,20.3953,VALID,20,VALID,0,
2009-03-12, 00:02:00,VALID,918.948,VALID,0,VALID,99.9756,VALID,-0.0849042,VALID,20.3923,VALID,13,VALID,0,
2009-03-12, 00:03:00,VALID,918.927,VALID,0,VALID,100,VALID,-0.0339617,VALID,20.392,VALID,10,VALID,0,
2009-03-12, 00:04:00,VALID,918.923,VALID,0,VALID,99.9631,VALID,-0.0339617,VALID,20.405,VALID,10,VALID,0,
2009-03-12, 00:05:00,VALID,918.908,VALID,0,VALID,99.9809,VALID,-0.0679233,VALID,20.4115,VALID,320,VALID,0,
2009-03-12, 00:06:00,VALID,918.888,VALID,0,VALID,99.9545,VALID,-0.0679233,VALID,20.4117,VALID,265,VALID,0,
2009-03-12, 00:07:00,VALID,918.864,VALID,0,VALID,99.9468,VALID,-0.0679233,VALID,20.428,VALID,265,VALID,0,
2009-03-12, 00:08:00,VALID,918.845,VALID,0,VALID,99.9481,VALID,-0.0339617,VALID,20.431,VALID,285,VALID,0,
2009-03-12, 00:09:00,VALID,918.833,VALID,0,VALID,99.9278,VALID,-0.0169808,VALID,20.4469,VALID,21,VALID,0,
2009-03-12, 00:10:00,VALID,918.826,VALID,0,VALID,99.8159,VALID,-0.0679233,VALID,20.4632,VALID,21,VALID,0,
2009-03-12, 00:11:00,VALID,918.818,VALID,0,VALID,99.7866,VALID,-0.0509425,VALID,20.4664,VALID,21,VALID,0,
2009-03-12, 00:12:00,VALID,918.831,VALID,0,VALID,99.7294,VALID,-0.0339617,VALID,20.4726,VALID,21,VALID,0,
2009-03-12, 00:13:00,VALID,918.837,VALID,0,VALID,99.7625,VALID,-0.0169808,VALID,20.4794,VALID,21,VALID,0,
2009-03-12, 00:14:00,VALID,918.85,VALID,0,VALID,99.7408,VALID,-0.0339617,VALID,20.4759,VALID,21,VALID,0,
2009-03-12, 00:15:00,VALID,918.862,VALID,0,VALID,99.7854,VALID,-0.0169808,VALID,20.4826,VALID,323,VALID,0,
2009-03-12, 00:16:00,VALID,918.854,VALID,0,VALID,99.8108,VALID,-0.0169808,VALID,20.4764,VALID,264,VALID,0,
2009-03-12, 00:17:00,VALID,918.851,VALID,0,VALID,99.9545,VALID,-0.0509425,VALID,20.4634,VALID,264,VALID,0,
2009-03-12, 00:18:00,VALID,918.845,VALID,0,VALID,99.999,VALID,-0.0679233,VALID,20.4667,VALID,264,VALID,0,
2009-03-12, 00:19:00,VALID,918.814,VALID,0,VALID,100,VALID,-0.0849042,VALID,20.4502,VALID,265,VALID,0,
2009-03-12, 00:20:00,VALID,918.793,VALID,0,VALID,99.9888,VALID,-0.0169808,VALID,20.4602,VALID,349,VALID,0.0773983,
2009-03-12, 00:21:00,VALID,918.764,VALID,0,VALID,99.779,VALID,-0.0509425,VALID,20.4147,VALID,23,VALID,0,
2009-03-12, 00:22:00,VALID,918.742,VALID,0,VALID,99.9552,VALID,-0.0679233,VALID,20.3566,VALID,28,VALID,0,
2009-03-12, 00:23:00,VALID,918.724,VALID,0,VALID,100,VALID,-0.0679233,VALID,20.3206,VALID,28,VALID,0,
2009-03-12, 00:24:00,VALID,918.716,VALID,0,VALID,100,VALID,-0.0169808,VALID,20.3006,VALID,28,VALID,0,
2009-03-12, 00:25:00,VALID,918.731,VALID,0,VALID,100,VALID,-0.0509425,VALID,20.2979,VALID,28,VALID,0,
2009-03-12, 00:26:00,VALID,918.737,VALID,0,VALID,100,VALID,0,VALID,20.3006,VALID,28,VALID,0,
2009-03-12, 00:27:00,VALID,918.747,VALID,0,VALID,100,VALID,-0.0169808,VALID,20.3009,VALID,28,VALID,0,
2009-03-12, 00:28:00,VALID,918.76,VALID,0,VALID,100,VALID,-0.0339617,VALID,20.2812,VALID,28,VALID,0,
2009-03-12, 00:29:00,VALID,918.759,VALID,0,VALID,100,VALID,-0.0169808,VALID,20.2619,VALID,28,VALID,0,
2009-03-12, 00:30:00,VALID,918.75,VALID,0,VALID,100,VALID,-0.0339617,VALID,20.2549,VALID,28,VALID,0,
2009-03-12, 00:31:00,VALID,918.746,VALID,0,VALID,100,VALID,-0.0169808,VALID,20.2392,VALID,28,VALID,0,
2009-03-12, 00:32:00,VALID,918.722,VALID,0,VALID,100,VALID,-0.0509425,VALID,20.226,VALID,28,VALID,0,
2009-03-12, 00:33:00,VALID,918.702,VALID,0,VALID,100,VALID,-0.0509425,VALID,20.2157,VALID,28,VALID,0,
2009-03-12, 00:34:00,VALID,918.688,VALID,0,VALID,100,VALID,-0.0169808,VALID,20.2198,VALID,28,VALID,0,
2009-03-12, 00:35:00,VALID,918.662,VALID,0,VALID,100,VALID,-0.0169808,VALID,20.1995,VALID,28,VALID,0,
2009-03-12, 00:36:00,VALID,918.64,VALID,0,VALID,100,VALID,-0.0339617,VALID,20.2005,VALID,28,VALID,0,
2009-03-12, 00:37:00,VALID,918.627,VALID,0,VALID,100,VALID,-0.0509425,VALID,20.1865,VALID,28,VALID,0,
2009-03-12, 00:38:00,VALID,918.622,VALID,0,VALID,100,VALID,-0.0169808,VALID,20.1771,VALID,28,VALID,0,
2009-03-12, 00:39:00,VALID,918.605,VALID,0,VALID,100,VALID,-0.0339617,VALID,20.1608,VALID,28,VALID,0,
2009-03-12, 00:40:00,VALID,918.624,VALID,0,VALID,100,VALID,-0.0169808,VALID,20.1449,VALID,28,VALID,0,
2009-03-12, 00:41:00,VALID,918.624,VALID,0,VALID,100,VALID,0.0169808,VALID,20.1154,VALID,28,VALID,0,
2009-03-12, 00:42:00,VALID,918.607,VALID,0,VALID,100,VALID,-0.0339617,VALID,20.0667,VALID,29,VALID,0,
2009-03-12, 00:43:00,VALID,918.595,VALID,0,VALID,100,VALID,-0.0169808,VALID,20.018,VALID,29,VALID,0,
2009-03-12, 00:44:00,VALID,918.551,VALID,0,VALID,100,VALID,-0.0169808,VALID,19.9631,VALID,29,VALID,0,
2009-03-12, 00:45:00,VALID,918.53,VALID,0,VALID,100,VALID,-0.0169808,VALID,19.9342,VALID,29,VALID,0,
2009-03-12, 00:46:00,VALID,918.5,VALID,0,VALID,100,VALID,-0.0679233,VALID,19.9177,VALID,29,VALID,0,
2009-03-12, 00:47:00,VALID,918.469,VALID,0,VALID,100,VALID,-0.0169808,VALID,19.9117,VALID,29,VALID,0,
2009-03-12, 00:48:00,VALID,918.439,VALID,0,VALID,100,VALID,-0.0169808,VALID,19.9012,VALID,29,VALID,0,
2009-03-12, 00:49:00,VALID,918.41,VALID,0,VALID,100,VALID,-0.0169808,VALID,19.8725,VALID,29,VALID,0,
2009-03-12, 00:50:00,VALID,918.4,VALID,0,VALID,100,VALID,-0.0169808,VALID,19.8461,VALID,29,VALID,0,
2009-03-12, 00:51:00,VALID,918.389,VALID,0,VALID,100,VALID,-0.0339617,VALID,19.8468,VALID,29,VALID,0,
2009-03-12, 00:52:00,VALID,918.377,VALID,0,VALID,100,VALID,-0.0849042,VALID,19.8501,VALID,29,VALID,0,
2009-03-12, 00:53:00,VALID,918.359,VALID,0,VALID,100,VALID,-0.0679233,VALID,19.8531,VALID,29,VALID,0,
2009-03-12, 00:54:00,VALID,918.343,VALID,0,VALID,100,VALID,-0.0169808,VALID,19.8496,VALID,29,VALID,0,
2009-03-12, 00:55:00,VALID,918.328,VALID,0,VALID,100,VALID,-0.0339617,VALID,19.8466,VALID,29,VALID,0,
2009-03-12, 00:56:00,VALID,918.313,VALID,0,VALID,100,VALID,0,VALID,19.8336,VALID,29,VALID,0,
2009-03-12, 00:57:00,VALID,918.305,VALID,0,VALID,100,VALID,-0.0169808,VALID,19.8166,VALID,29,VALID,0,
2009-03-12, 00:58:00,VALID,918.283,VALID,0,VALID,100,VALID,0,VALID,19.7976,VALID,29,VALID,0,
2009-03-12, 00:59:00,VALID,918.269,VALID,0,VALID,100,VALID,-0.0169808,VALID,19.7847,VALID,29,VALID,0,
2009-03-12, 01:00:00,VALID,918.271,VALID,0,VALID,100,VALID,0,VALID,19.7749,VALID,29,VALID,0,
2009-03-12, 01:01:00,VALID,918.271,VALID,0,VALID,100,VALID,0,VALID,19.7777,VALID,29,VALID,0,
2009-03-12, 01:02:00,VALID,918.274,VALID,0,VALID,100,VALID,0,VALID,19.7941,VALID,29,VALID,0,
2009-03-12, 01:03:00,VALID,918.269,VALID,0,VALID,100,VALID,-0.0339617,VALID,19.7422,VALID,29,VALID,0,
2009-03-12, 01:04:00,VALID,918.28,VALID,0,VALID,100,VALID,-0.0169808,VALID,19.6768,VALID,29,VALID,0,
2009-03-12, 01:05:00,VALID,918.287,VALID,0,VALID,100,VALID,-0.0169808,VALID,19.6449,VALID,29,VALID,0,
2009-03-12, 01:06:00,VALID,918.276,VALID,0,VALID,100,VALID,-0.0339617,VALID,19.6449,VALID,29,VALID,0,
2009-03-12, 01:07:00,VALID,918.26,VALID,0,VALID,100,VALID,-0.0509425,VALID,19.6481,VALID,29,VALID,0,
2009-03-12, 01:08:00,VALID,918.242,VALID,0,VALID,100,VALID,-0.0169808,VALID,19.6521,VALID,29,VALID,0,
2009-03-12, 01:09:00,VALID,918.222,VALID,0,VALID,100,VALID,-0.0509425,VALID,19.6287,VALID,29,VALID,0,
2009-03-12, 01:10:00,VALID,918.203,VALID,0,VALID,100,VALID,-0.0339617,VALID,19.6022,VALID,29,VALID,0,
2009-03-12, 01:11:00,VALID,918.19,VALID,0,VALID,100,VALID,-0.0169808,VALID,19.6157,VALID,68,VALID,0,
2009-03-12, 01:12:00,VALID,918.173,VALID,0,VALID,100,VALID,-0.0339617,VALID,19.5965,VALID,131,VALID,0,
2009-03-12, 01:13:00,VALID,918.161,VALID,0,VALID,100,VALID,-0.0169808,VALID,19.5995,VALID,161,VALID,0,
2009-03-12, 01:14:00,VALID,918.159,VALID,0,VALID,100,VALID,-0.0339617,VALID,19.606,VALID,158,VALID,0.0951705,
2009-03-12, 01:15:00,VALID,918.169,VALID,0,VALID,100,VALID,-0.0509425,VALID,19.6359,VALID,166,VALID,0.0466933,
2009-03-12, 01:16:00,VALID,918.176,VALID,0,VALID,100,VALID,-0.0169808,VALID,19.6584,VALID,166,VALID,0,
2009-03-12, 01:17:00,VALID,918.167,VALID,0,VALID,100,VALID,-0.0339617,VALID,19.6841,VALID,162,VALID,0,
2009-03-12, 01:18:00,VALID,918.171,VALID,0,VALID,100,VALID,-0.0509425,VALID,19.6736,VALID,162,VALID,0,
2009-03-12, 01:19:00,VALID,918.166,VALID,0,VALID,100,VALID,0,VALID,19.6609,VALID,162,VALID,0,
2009-03-12, 01:20:00,VALID,918.17,VALID,0,VALID,100,VALID,-0.0169808,VALID,19.6768,VALID,162,VALID,0,
2009-03-12, 01:21:00,VALID,918.163,VALID,0,VALID,100,VALID,-0.0509425,VALID,19.7003,VALID,162,VALID,0,
2009-03-12, 01:22:00,VALID,918.165,VALID,0,VALID,100,VALID,-0.0339617,VALID,19.7001,VALID,162,VALID,0,
2009-03-12, 01:23:00,VALID,918.15,VALID,0,VALID,100,VALID,0,VALID,19.6998,VALID,162,VALID,0,
2009-03-12, 01:24:00,VALID,918.126,VALID,0,VALID,100,VALID,0,VALID,19.7165,VALID,162,VALID,0,
2009-03-12, 01:25:00,VALID,918.119,VALID,0,VALID,100,VALID,-0.0169808,VALID,19.7253,VALID,162,VALID,0,
2009-03-12, 01:26:00,VALID,918.093,VALID,0,VALID,100,VALID,-0.0169808,VALID,19.7382,VALID,162,VALID,0,
2009-03-12, 01:27:00,VALID,918.104,VALID,0,VALID,100,VALID,-0.0509425,VALID,19.7784,VALID,162,VALID,0,
2009-03-12, 01:28:00,VALID,918.093,VALID,0,VALID,100,VALID,0,VALID,19.7772,VALID,162,VALID,0,
2009-03-12, 01:29:00,VALID,918.092,VALID,0,VALID,100,VALID,-0.0169808,VALID,19.7807,VALID,173,VALID,0,
2009-03-12, 01:30:00,VALID,918.107,VALID,0,VALID,100,VALID,-0.0509425,VALID,19.8071,VALID,176,VALID,0,
2009-03-12, 01:31:00,VALID,918.1,VALID,0,VALID,100,VALID,-0.0169808,VALID,19.8166,VALID,180,VALID,0,
2009-03-12, 01:32:00,VALID,918.105,VALID,0,VALID,100,VALID,-0.0169808,VALID,19.8261,VALID,220,VALID,0,
2009-03-12, 01:33:00,VALID,918.115,VALID,0,VALID,100,VALID,-0.0509425,VALID,19.8561,VALID,220,VALID,0,
2009-03-12, 01:34:00,VALID,918.11,VALID,0,VALID,100,VALID,-0.0339617,VALID,19.8848,VALID,220,VALID,0,
2009-03-12, 01:35:00,VALID,918.113,VALID,0,VALID,100,VALID,-0.0169808,VALID,19.8975,VALID,224,VALID,0.0625,
2009-03-12, 01:36:00,VALID,918.096,VALID,0,VALID,100,VALID,-0.0509425,VALID,19.9007,VALID,236,VALID,0,
2009-03-12, 01:37:00,VALID,918.069,VALID,0,VALID,100,VALID,0,VALID,19.907,VALID,236,VALID,0,
2009-03-12, 01:38:00,VALID,918.047,VALID,0,VALID,100,VALID,-0.0169808,VALID,19.9239,VALID,236,VALID,0,
2009-03-12, 01:39:00,VALID,918.009,VALID,0,VALID,100,VALID,0,VALID,19.9299,VALID,236,VALID,0,
2009-03-12, 01:40:00,VALID,917.988,VALID,0,VALID,100,VALID,-0.0509425,VALID,19.9469,VALID,236,VALID,0,
2009-03-12, 01:41:00,VALID,917.979,VALID,0,VALID,100,VALID,-0.0679233,VALID,19.9469,VALID,243,VALID,0.0363991,
2009-03-12, 01:42:00,VALID,917.949,VALID,0,VALID,100,VALID,-0.0169808,VALID,19.9469,VALID,258,VALID,0.013587,
2009-03-12, 01:43:00,VALID,917.937,VALID,0,VALID,100,VALID,-0.0509425,VALID,19.9369,VALID,250,VALID,0,
2009-03-12, 01:44:00,VALID,917.928,VALID,0,VALID,100,VALID,-0.0169808,VALID,19.9272,VALID,253,VALID,0,
2009-03-12, 01:45:00,VALID,917.918,VALID,0,VALID,100,VALID,-0.0169808,VALID,19.9204,VALID,253,VALID,0,
2009-03-12, 01:46:00,VALID,917.903,VALID,0,VALID,100,VALID,-0.0169808,VALID,19.9204,VALID,257,VALID,0,
2009-03-12, 01:47:00,VALID,917.904,VALID,0,VALID,100,VALID,0,VALID,19.917,VALID,258,VALID,0,
2009-03-12, 01:48:00,VALID,917.909,VALID,0,VALID,100,VALID,-0.0339617,VALID,19.9269,VALID,258,VALID,0,
2009-03-12, 01:49:00,VALID,917.913,VALID,0,VALID,100,VALID,-0.0169808,VALID,19.917,VALID,258,VALID,0,
2009-03-12, 01:50:00,VALID,917.926,VALID,0,VALID,100,VALID,0,VALID,19.9037,VALID,258,VALID,0,
2009-03-12, 01:51:00,VALID,917.928,VALID,0,VALID,100,VALID,0,VALID,19.9005,VALID,222,VALID,0,
2009-03-12, 01:52:00,VALID,917.933,VALID,0,VALID,100,VALID,-0.0169808,VALID,19.911,VALID,201,VALID,0,
2009-03-12, 01:53:00,VALID,917.93,VALID,0,VALID,100,VALID,0,VALID,19.894,VALID,201,VALID,0,
2009-03-12, 01:54:00,VALID,917.922,VALID,0,VALID,100,VALID,0,VALID,19.898,VALID,201,VALID,0,
2009-03-12, 01:55:00,VALID,917.92,VALID,0,VALID,100,VALID,-0.0169808,VALID,19.872,VALID,198,VALID,0,
2009-03-12, 01:56:00,VALID,917.913,VALID,0,VALID,100,VALID,-0.0339617,VALID,19.7872,VALID,198,VALID,0,
2009-03-12, 01:57:00,VALID,917.923,VALID,0,VALID,100,VALID,-0.0509425,VALID,19.7457,VALID,198,VALID,0,
2009-03-12, 01:58:00,VALID,917.92,VALID,0,VALID,100,VALID,-0.0339617,VALID,19.7155,VALID,197,VALID,0,
2009-03-12, 01:59:00,VALID,917.916,VALID,0,VALID,100,VALID,-0.0339617,VALID,19.7322,VALID,197,VALID,0.0329241,
2009-03-12, 02:00:00,VALID,917.901,VALID,0,VALID,100,VALID,-0.0679233,VALID,19.7487,VALID,197,VALID,0,
2009-03-12, 02:01:00,VALID,917.882,VALID,0,VALID,100,VALID,-0.0339617,VALID,19.7093,VALID,197,VALID,0.0432413,
2009-03-12, 02:02:00,VALID,917.855,VALID,0,VALID,100,VALID,-0.0169808,VALID,19.6609,VALID,197,VALID,0,
2009-03-12, 02:03:00,VALID,917.813,VALID,0,VALID,100,VALID,-0.0169808,VALID,19.6217,VALID,192,VALID,0,
2009-03-12, 02:04:00,VALID,917.792,VALID,0,VALID,100,VALID,-0.0509425,VALID,19.5997,VALID,142,VALID,0,
2009-03-12, 02:05:00,VALID,917.759,VALID,0,VALID,100,VALID,0,VALID,19.5503,VALID,102,VALID,0,
2009-03-12, 02:06:00,VALID,917.75,VALID,0,VALID,100,VALID,-0.0339617,VALID,19.5111,VALID,98,VALID,0,
2009-03-12, 02:07:00,VALID,917.745,VALID,0,VALID,100,VALID,-0.0169808,VALID,19.4989,VALID,93,VALID,0,
2009-03-12, 02:08:00,VALID,917.744,VALID,0,VALID,100,VALID,-0.0169808,VALID,19.4595,VALID,85,VALID,0,
2009-03-12, 02:09:00,VALID,917.737,VALID,0,VALID,100,VALID,0.0339617,VALID,19.4652,VALID,85,VALID,0,
2009-03-12, 02:10:00,VALID,917.739,VALID,0,VALID,100,VALID,0.0509425,VALID,19.4655,VALID,85,VALID,0,
2009-03-12, 02:11:00,VALID,917.734,VALID,0,VALID,100,VALID,0.0679233,VALID,19.4457,VALID,85,VALID,0,
2009-03-12, 02:12:00,VALID,917.734,VALID,0,VALID,100,VALID,0.0509425,VALID,19.4522,VALID,85,VALID,0,
2009-03-12, 02:13:00,VALID,917.711,VALID,0,VALID,100,VALID,0.0509425,VALID,19.4388,VALID,82,VALID,0,
2009-03-12, 02:14:00,VALID,917.676,VALID,0,VALID,100,VALID,0.0679233,VALID,19.4455,VALID,71,VALID,0,
2009-03-12, 02:15:00,VALID,917.645,VALID,0,VALID,100,VALID,0.0679233,VALID,19.4265,VALID,71,VALID,0,
2009-03-12, 02:16:00,VALID,917.616,VALID,0,VALID,100,VALID,0.0679233,VALID,19.4098,VALID,70,VALID,0,
2009-03-12, 02:17:00,VALID,917.57,VALID,0,VALID,100,VALID,0.0679233,VALID,19.4163,VALID,71,VALID,0,
2009-03-12, 02:18:00,VALID,917.547,VALID,0,VALID,100,VALID,0.0509425,VALID,19.4233,VALID,68,VALID,0,
2009-03-12, 02:19:00,VALID,917.537,VALID,0,VALID,100,VALID,0.0849042,VALID,19.4068,VALID,68,VALID,0,
2009-03-12, 02:20:00,VALID,917.519,VALID,0,VALID,100,VALID,0,VALID,19.4038,VALID,68,VALID,0,
2009-03-12, 02:21:00,VALID,917.518,VALID,0,VALID,100,VALID,0,VALID,19.4071,VALID,68,VALID,0,
2009-03-12, 02:22:00,VALID,917.524,VALID,0,VALID,100,VALID,0.0509425,VALID,19.4135,VALID,58,VALID,0,
2009-03-12, 02:23:00,VALID,917.504,VALID,0,VALID,100,VALID,-0.0339617,VALID,19.421,VALID,53,VALID,0,
2009-03-12, 02:24:00,VALID,917.49,VALID,0,VALID,100,VALID,-0.0849042,VALID,19.4282,VALID,42,VALID,0,
2009-03-12, 02:25:00,VALID,917.47,VALID,0,VALID,100,VALID,-0.0509425,VALID,19.4377,VALID,28,VALID,0,
2009-03-12, 02:26:00,VALID,917.466,VALID,0,VALID,100,VALID,-0.0849042,VALID,19.4345,VALID,28,VALID,0,
2009-03-12, 02:27:00,VALID,917.463,VALID,0,VALID,100,VALID,-0.0509425,VALID,19.4085,VALID,27,VALID,0,
2009-03-12, 02:28:00,VALID,917.453,VALID,0,VALID,100,VALID,-0.0509425,VALID,19.4178,VALID,27,VALID,0,
2009-03-12, 02:29:00,VALID,917.447,VALID,0,VALID,100,VALID,-0.0509425,VALID,19.4442,VALID,27,VALID,0,
2009-03-12, 02:30:00,VALID,917.44,VALID,0,VALID,100,VALID,-0.0509425,VALID,19.4769,VALID,27,VALID,0,
2009-03-12, 02:31:00,VALID,917.436,VALID,0,VALID,100,VALID,-0.0509425,VALID,19.5024,VALID,27,VALID,0,
2009-03-12, 02:32:00,VALID,917.425,VALID,0,VALID,100,VALID,-0.0339617,VALID,19.5089,VALID,27,VALID,0,
2009-03-12, 02:33:00,VALID,917.42,VALID,0,VALID,100,VALID,-0.0339617,VALID,19.5091,VALID,27,VALID,0,
2009-03-12, 02:34:00,VALID,917.409,VALID,0,VALID,100,VALID,-0.0339617,VALID,19.5091,VALID,27,VALID,0,
2009-03-12, 02:35:00,VALID,917.389,VALID,0,VALID,100,VALID,-0.0509425,VALID,19.5124,VALID,27,VALID,0,
2009-03-12, 02:36:00,VALID,917.382,VALID,0,VALID,100,VALID,-0.0339617,VALID,19.4991,VALID,27,VALID,0,
2009-03-12, 02:37:00,VALID,917.384,VALID,0,VALID,100,VALID,-0.0679233,VALID,19.4894,VALID,27,VALID,0,
2009-03-12, 02:38:00,VALID,917.376,VALID,0,VALID,100,VALID,-0.0509425,VALID,19.4929,VALID,27,VALID,0,
2009-03-12, 02:39:00,VALID,917.359,VALID,0,VALID,100,VALID,-0.0849042,VALID,19.4961,VALID,27,VALID,0,
2009-03-12, 02:40:00,VALID,917.354,VALID,0,VALID,100,VALID,-0.0169808,VALID,19.5086,VALID,27,VALID,0,
2009-03-12, 02:41:00,VALID,917.326,VALID,0,VALID,100,VALID,0,VALID,19.5248,VALID,27,VALID,0,
2009-03-12, 02:42:00,VALID,917.294,VALID,0,VALID,100,VALID,-0.0509425,VALID,19.5313,VALID,26,VALID,0,
2009-03-12, 02:43:00,VALID,917.274,VALID,0,VALID,100,VALID,-0.0509425,VALID,19.5346,VALID,20,VALID,0,
2009-03-12, 02:44:00,VALID,917.249,VALID,0,VALID,100,VALID,-0.0679233,VALID,19.5545,VALID,20,VALID,0,
2009-03-12, 02:45:00,VALID,917.231,VALID,0,VALID,100,VALID,-0.0509425,VALID,19.5605,VALID,20,VALID,0,
2009-03-12, 02:46:00,VALID,917.226,VALID,0,VALID,100,VALID,-0.0339617,VALID,19.5246,VALID,20,VALID,0,
2009-03-12, 02:47:00,VALID,917.201,VALID,0,VALID,100,VALID,-0.0679233,VALID,19.4832,VALID,20,VALID,0,
2009-03-12, 02:48:00,VALID,917.181,VALID,0,VALID,100,VALID,-0.0679233,VALID,19.4477,VALID,20,VALID,0,
2009-03-12, 02:49:00,VALID,917.171,VALID,0,VALID,100,VALID,-0.101885,VALID,19.415,VALID,20,VALID,0,
2009-03-12, 02:50:00,VALID,917.165,VALID,0,VALID,100,VALID,-0.0849042,VALID,19.3821,VALID,20,VALID,0,
2009-03-12, 02:51:00,VALID,917.169,VALID,0,VALID,100,VALID,-0.0339617,VALID,19.3888,VALID,20,VALID,0,
2009-03-12, 02:52:00,VALID,917.159,VALID,0,VALID,100,VALID,-0.0169808,VALID,19.3594,VALID,20,VALID,0,
2009-03-12, 02:53:00,VALID,917.143,VALID,0,VALID,100,VALID,-0.0339617,VALID,19.3462,VALID,20,VALID,0,
2009-03-12, 02:54:00,VALID,917.121,VALID,0,VALID,100,VALID,-0.0509425,VALID,19.3466,VALID,20,VALID,0,
2009-03-12, 02:55:00,VALID,917.129,VALID,0,VALID,100,VALID,-0.0339617,VALID,19.3332,VALID,20,VALID,0,
2009-03-12, 02:56:00,VALID,917.108,VALID,0,VALID,100,VALID,0,VALID,19.3329,VALID,20,VALID,0,
2009-03-12, 02:57:00,VALID,917.105,VALID,0,VALID,100,VALID,-0.0339617,VALID,19.3402,VALID,20,VALID,0,
2009-03-12, 02:58:00,VALID,917.088,VALID,0,VALID,100,VALID,-0.0169808,VALID,19.3402,VALID,20,VALID,0,
2009-03-12, 02:59:00,VALID,917.09,VALID,0,VALID,100,VALID,-0.0849042,VALID,19.3364,VALID,20,VALID,0,
2009-03-12, 03:00:00,VALID,917.087,VALID,0,VALID,100,VALID,-0.0339617,VALID,19.3397,VALID,20,VALID,0,
2009-03-12, 03:01:00,VALID,917.08,VALID,0,VALID,100,VALID,-0.0679233,VALID,19.3631,VALID,20,VALID,0,
2009-03-12, 03:02:00,VALID,917.082,VALID,0,VALID,100,VALID,-0.0509425,VALID,19.3733,VALID,20,VALID,0,
2009-03-12, 03:03:00,VALID,917.08,VALID,0,VALID,100,VALID,-0.0849042,VALID,19.3698,VALID,20,VALID,0,
2009-03-12, 03:04:00,VALID,917.067,VALID,0,VALID,100,VALID,-0.0679233,VALID,19.3436,VALID,20,VALID,0,
2009-03-12, 03:05:00,VALID,917.052,VALID,0,VALID,100,VALID,-0.0509425,VALID,19.2905,VALID,20,VALID,0,
2009-03-12, 03:06:00,VALID,917.038,VALID,0,VALID,100,VALID,-0.0679233,VALID,19.3267,VALID,20,VALID,0,
2009-03-12, 03:07:00,VALID,917.026,VALID,0,VALID,100,VALID,-0.0509425,VALID,19.3337,VALID,20,VALID,0,
2009-03-12, 03:08:00,VALID,917.016,VALID,0,VALID,100,VALID,-0.0849042,VALID,19.3531,VALID,19,VALID,0,
2009-03-12, 03:09:00,VALID,917.016,VALID,0,VALID,100,VALID,-0.0509425,VALID,19.3689,VALID,342,VALID,0,
2009-03-12, 03:10:00,VALID,917.011,VALID,0,VALID,100,VALID,-0.0679233,VALID,19.4018,VALID,326,VALID,0,
2009-03-12, 03:11:00,VALID,916.995,VALID,0,VALID,100,VALID,-0.0849042,VALID,19.4243,VALID,326,VALID,0,
2009-03-12, 03:12:00,VALID,916.992,VALID,0,VALID,100,VALID,-0.0679233,VALID,19.4275,VALID,273,VALID,0,
2009-03-12, 03:13:00,VALID,916.983,VALID,0,VALID,100,VALID,-0.0339617,VALID,19.44,VALID,242,VALID,0,
2009-03-12, 03:14:00,VALID,916.971,VALID,0,VALID,100,VALID,-0.0339617,VALID,19.447,VALID,242,VALID,0,
2009-03-12, 03:15:00,VALID,916.963,VALID,0,VALID,100,VALID,-0.0339617,VALID,19.4375,VALID,242,VALID,0,
2009-03-12, 03:16:00,VALID,916.949,VALID,0,VALID,100,VALID,-0.0169808,VALID,19.4238,VALID,242,VALID,0,
2009-03-12, 03:17:00,VALID,916.928,VALID,0,VALID,100,VALID,-0.0679233,VALID,19.4407,VALID,242,VALID,0,
2009-03-12, 03:18:00,VALID,916.918,VALID,0,VALID,100,VALID,-0.0509425,VALID,19.45,VALID,242,VALID,0,
2009-03-12, 03:19:00,VALID,916.9,VALID,0,VALID,100,VALID,-0.0509425,VALID,19.4664,VALID,242,VALID,0,
2009-03-12, 03:20:00,VALID,916.884,VALID,0,VALID,100,VALID,-0.0849042,VALID,19.4532,VALID,242,VALID,0,
2009-03-12, 03:21:00,VALID,916.868,VALID,0,VALID,100,VALID,-0.0509425,VALID,19.4565,VALID,242,VALID,0,
2009-03-12, 03:22:00,VALID,916.861,VALID,0,VALID,100,VALID,-0.0849042,VALID,19.4667,VALID,242,VALID,0,
2009-03-12, 03:23:00,VALID,916.838,VALID,0,VALID,100,VALID,-0.0849042,VALID,19.4799,VALID,242,VALID,0,
2009-03-12, 03:24:00,VALID,916.826,VALID,0,VALID,100,VALID,-0.0849042,VALID,19.4632,VALID,242,VALID,0,
2009-03-12, 03:25:00,VALID,916.83,VALID,0,VALID,100,VALID,-0.0849042,VALID,19.4607,VALID,242,VALID,0,
2009-03-12, 03:26:00,VALID,916.837,VALID,0,VALID,100,VALID,-0.0849042,VALID,19.4345,VALID,242,VALID,0,
2009-03-12, 03:27:00,VALID,916.844,VALID,0,VALID,100,VALID,-0.0509425,VALID,19.4108,VALID,242,VALID,0,
2009-03-12, 03:28:00,VALID,916.866,VALID,0,VALID,100,VALID,-0.0339617,VALID,19.421,VALID,242,VALID,0,
2009-03-12, 03:29:00,VALID,916.879,VALID,0,VALID,100,VALID,-0.0679233,VALID,19.4143,VALID,242,VALID,0,
2009-03-12, 03:30:00,VALID,916.912,VALID,0,VALID,100,VALID,-0.0339617,VALID,19.405,VALID,242,VALID,0,
2009-03-12, 03:31:00,VALID,916.913,VALID,0,VALID,100,VALID,-0.0849042,VALID,19.3464,VALID,242,VALID,0,
2009-03-12, 03:32:00,VALID,916.922,VALID,0,VALID,100,VALID,-0.0509425,VALID,19.2486,VALID,242,VALID,0,
2009-03-12, 03:33:00,VALID,916.937,VALID,0,VALID,100,VALID,-0.0849042,VALID,19.2264,VALID,242,VALID,0,
2009-03-12, 03:34:00,VALID,916.935,VALID,0,VALID,100,VALID,-0.0849042,VALID,19.1812,VALID,241,VALID,0,
2009-03-12, 03:35:00,VALID,916.912,VALID,0,VALID,100,VALID,-0.101885,VALID,19.1413,VALID,335,VALID,0,
2009-03-12, 03:36:00,VALID,916.912,VALID,0,VALID,100,VALID,-0.0339617,VALID,19.142,VALID,53,VALID,0,
2009-03-12, 03:37:00,VALID,916.897,VALID,0,VALID,100,VALID,-0.0679233,VALID,19.1353,VALID,53,VALID,0,
2009-03-12, 03:38:00,VALID,916.897,VALID,0,VALID,100,VALID,-0.101885,VALID,19.1135,VALID,57,VALID,0,
2009-03-12, 03:39:00,VALID,916.884,VALID,0,VALID,100,VALID,-0.101885,VALID,19.139,VALID,57,VALID,0,
2009-03-12, 03:40:00,VALID,916.886,VALID,0,VALID,100,VALID,-0.101885,VALID,19.1717,VALID,67,VALID,0,
2009-03-12, 03:41:00,VALID,916.884,VALID,0,VALID,100,VALID,-0.0849042,VALID,19.1457,VALID,85,VALID,0,
2009-03-12, 03:42:00,VALID,916.879,VALID,0,VALID,100,VALID,-0.0849042,VALID,19.0903,VALID,90,VALID,0,
2009-03-12, 03:43:00,VALID,916.871,VALID,0,VALID,100,VALID,-0.0679233,VALID,19.0609,VALID,91,VALID,0,
2009-03-12, 03:44:00,VALID,916.861,VALID,0,VALID,100,VALID,-0.0679233,VALID,19.035,VALID,89,VALID,0,
2009-03-12, 03:45:00,VALID,916.851,VALID,0,VALID,100,VALID,-0.0169808,VALID,19.0085,VALID,78,VALID,0,
2009-03-12, 03:46:00,VALID,916.823,VALID,0,VALID,100,VALID,-0.0509425,VALID,19.0088,VALID,77,VALID,0,
2009-03-12, 03:47:00,VALID,916.79,VALID,0,VALID,100,VALID,-0.0679233,VALID,18.999,VALID,79,VALID,0,
2009-03-12, 03:48:00,VALID,916.767,VALID,0,VALID,100,VALID,-0.0509425,VALID,18.9925,VALID,79,VALID,0,
2009-03-12, 03:49:00,VALID,916.737,VALID,0,VALID,100,VALID,-0.0679233,VALID,19.003,VALID,81,VALID,0,
2009-03-12, 03:50:00,VALID,916.712,VALID,0,VALID,100,VALID,-0.0849042,VALID,18.9798,VALID,83,VALID,0,